星链-5262 (STARLINK-5262 )

导读 | 豆包AI

STARLINK-5262是美国太空探索技术公司星链互联网卫星星座中的一颗卫星,于2022年10月28日发射升空,属于星链组网批次卫星。该卫星运行在近地轨道,主要为全球范围内用户提供低延迟、宽带互联网服务,是星链星座实现全球覆盖组网的组成部分,服务覆盖包括偏远地区等网络基础设施薄弱区域。

基本信息
目录编号:
54207
目录名称:
STARLINK-5262
国际标识:
2022-141BC
轨道中心:
EARTH
卫星名称:
星链-5262
卫星全名:
星链-5262 (STARLINK-5262 )
卫星状态:
在轨 (已飞行1234 天)
发射日期:
2022-10-28 UTC
国别 :
美国 (US)
星等 :
--
轨道信息
数据来源 国际轨道数据
星历时间: 2026-03-15T06:10:46+0800
13小时前
查看轨道信息
半长轴: 6917.879km
偏心率: 0.0001347
轨道倾角: 53.219°
近地点辐角 89.311°
升交点赤经 330.230°
平近点角 270.804°
近地点: 538.81km
远地点: 540.674km
周期: 95.438分钟
每日圈数: 15.088406
详细信息
固有亮度:
5
最大亮度:
2.5
卫星平台:
Starlink v1.5
覆盖范围:
全球
运营商:
太空探索技术公司
运营商所在国:
美国
制造商(研发单位):
太空探索技术公司
制造商所在国:
美国
使用方式:
暂无
卫星简介
星链(Starlink)计划是由太空探索技术公司(SpaceX)提出的一个巨型低轨卫星互联网星座项目,计划在2019年至2024年间在太空搭建由约1.2万颗卫星组成的“星链”网络,其中1584颗将部署在地球上空550千米处的近地轨道,并从2020年开始工作。该卫星仍在工作。
2D轨道图
3D轨道图
轨道高度分析图
轨道倾角分析图
轨道综合分析图
查看轨道综合分析图